Location: Newark
(25.5428°S, 54.5819°W)
Time: 23:23:31
(UTC+00:00)

Envisat - Pass Details

Date: 22 July 2019
Orbit: 764 x 766 km, 98.1° (Epoch: 21 August)

Event Time Altitude Azimuth Distance (km) Brightness Sun altitude
Rises 08:55:42 0° 56° (NE) 3,222 7.5 -19.2°
Reaches altitude 10° 08:59:04 10° 80° (E) 2,306 6.7 -18.5°
Maximum altitude 09:01:41 14° 111° (ESE) 2,028 5.9 -17.9°
Drops below altitude 10° 09:04:19 10° 142° (SE) 2,319 5.8 -17.4°
Sets 09:07:42 0° 166° (SSE) 3,255 6.3 -16.6°
